AirNav   Air Wisconsin pilot careers
 
 807 users online  

6X0 Tarrant Field Airport
Mount Selman, Texas, USA

GOING TO MOUNT SELMAN?


FAA INFORMATION EFFECTIVE 11 OCTOBER 2018

Location

FAA Identifier: 6X0
Lat/Long: 32-05-51.0000N / 095-17-41.5000W
32-05.850000N / 095-17.691667W
32.0975000 / -95.2948611
(estimated)
Elevation: 590 ft. / 180 m (estimated)
Variation: 06E (1985)
From city: 2 miles N of MOUNT SELMAN, TX
Time zone: UTC -5 (UTC -6 during Standard Time)
Zip code: 75757

Airport Operations

Airport use: Open to the public
Activation date: 10/1974
Control tower: no
ARTCC: FORT WORTH CENTER
FSS: FORT WORTH FLIGHT SERVICE STATION
NOTAMs facility: FTW (NOTAM-D service available)
Attendance: UNATNDD
Wind indicator: yes
Segmented circle: no

Airport Communications

CTAF: 122.9
WX AWOS-3 at JSO (14 nm S): 119.075 (903-586-0124)
WX ASOS at TYR (16 nm N): PHONE 903-535-9105

Nearby radio navigation aids

VOR radial/distance  VOR name  Freq  Var
FZTr077/12.1FRANKSTON VOR/DME111.4006E
TYRr154/16.5TYLER VOR/DME114.2006E
GGGr228/33.5GREGG COUNTY VORTAC112.3007E

 
NDB name  Hdg/Dist  Freq  Var  ID
ATHENS092/27.526906EAHX .- .... -..-
PALESTINE043/28.137504EPSN .--. ... -.
AMBASSADOR190/30.740407EABG .- -... --.
CROSSROADS079/33.821508ECSZ -.-. ... --..

Airport Services

Airframe service: NONE
Powerplant service: NONE

Runway Information

Runway 12/30

Dimensions: 2700 x 30 ft. / 823 x 9 m
Surface: turf, in fair condition
Gradient: SE
RUNWAY 12  RUNWAY 30
Latitude: 32-05.971698N32-05.727433N
Longitude: 095-17.911115W095-17.473577W
Elevation: 540.0 ft.588.0 ft.
Gradient: 1.8% UP
Traffic pattern: leftleft
Runway heading: 117 magnetic, 123 true297 magnetic, 303 true
Obstructions: 20 ft. trees40 ft. trees, 60 ft. left of centerline

Airport Ownership and Management from official FAA records

Ownership: Privately-owned
Owner: JIM TARRANT, JR.
P.O. BOX 457
BULLARD, TX 75757
Phone (903) 574-1760
Manager: JIM TARRANT, JR.
P O BOX 457
BULLARD, TX 75757
Phone (903) 574-1760

Airport Operational Statistics

Aircraft based on the field: 2
Single engine airplanes: 1
Ultralights: 1
    
Aircraft operations: avg 31/month *
80% local general aviation
20% transient general aviation
* for 12-month period ending 16 June 2016

Additional Remarks

2049' MSL LGTD ANTENNA 2.75 MILES S OF ARPT.
RY 30 25 FT MARKED PLINE ACROSS APCH AT THLD.

Instrument Procedures

There are no published instrument procedures at 6X0.

Some nearby airports with instrument procedures:

KJSO - Cherokee County Airport (14 nm S)
KTYR - Tyler Pounds Regional Airport (16 nm N)
KRFI - Rusk County Airport (23 nm E)
F44 - Athens Municipal Airport (27 nm W)
KPSN - Palestine Municipal Airport (28 nm SW)
 
Loc | Ops | Rwys | IFR | FBO | Links
Com | Nav | Svcs | Stats | Notes


 
Area around 6X0 (Tarrant Field Airport)
 
Road maps at: MapQuest Bing Google
 
Aerial photo
WARNING: Photo may not be current or correct
Aerial photo of 6X0 (Tarrant Field Airport)
Do you have a better or more recent aerial photo of Tarrant Field Airport that you would like to share? If so, please send us your photo.

 
Sectional chart

 
Airport distance calculator
Flying to Tarrant Field Airport? Find the distance to fly.

From to 6X0

Sunrise and sunset
Times for 20-Oct-2018
 Local
(UTC-5)
 Zulu
(UTC)
Morning civil twilight07:0512:05
Sunrise07:2912:29
Sunset18:4323:43
Evening civil twilight19:0700:07

Current date and time
Zulu (UTC)  21-Oct-2018 00:40:01
Local (UTC-5)  20-Oct-2018 19:40:01
 
METAR
KJSO 
14nm S 
210015Z AUTO 03005KT 10SM CLR 17/15 A3022 RMK AO2 T01760153
KTYR 
17nm N 
202353Z 01005KT 10SM CLR 19/14 A3020 RMK AO2 SLP223 T01940139 10233 20167 53012
KRFI 
23nm E 
210015Z AUTO 10SM CLR 16/15 A3022 RMK AO2 T01560149
KF44 
27nm W 
210015Z AUTO 00000KT 10SM CLR 18/13 A3020 RMK AO2
KPSN 
28nm SW 
210015Z AUTO 00000KT 10SM CLR 16/16 A3022 RMK AO2 T01650161
TAF
KTYR 
17nm N 
201759Z 2018/2118 02007KT P6SM OVC008 TEMPO 2018/2020 01010G16KT SCT008 OVC015 FM202000 02011G17KT P6SM SCT025 BKN250 FM202200 01011G17KT P6SM SCT035 BKN250 FM210000 36010KT P6SM SCT250 FM210900 03007KT P6SM SCT250 FM211500 07013KT P6SM BKN250
NOTAMs
Click for the latest NOTAMs
NOTAMs are issued by the DoD/FAA and will open in a separate window not controlled by AirNav.

 

 
 

Would you like to see your business listed on this page?

 If your business provides an interesting product or service to pilots, flight crews, aircraft, or users of the Tarrant Field Airport, you should consider listing it here.  To start the listing process, click on the button below
 
Add a business
 

Other Pages about Tarrant Field Airport

Update a link
 
Copyright © AirNav, LLC. All rights reserved. Privacy Policy  Contact